Overview Statistics Trail Chart Weather Telemetry Raw packets
 

This is the latest recevied weather packets stored in our database for station/object HS2GJW-1. If no packets are shown the sender has not sent any weather packets the latest 10 day(s).

<< 16 17 18 19 20 21 22 >>
Time Temp. Humidity Pressure Rain* Wind** Luminosity Snow
1787967983 31.11° C 97% 1009 hPa - - 0 W/m² -
1787967358 31.11° C 97% 1009 hPa - - 0 W/m² -
1787966733 31.11° C 98% 1009 hPa - - 0 W/m² -
1787966107 31.11° C 99% 1009 hPa - - 0 W/m² -
1787965483 30.56° C 99% 1009 hPa - - 0 W/m² -
1787964858 30.56° C 99% 1009 hPa - - 0 W/m² -
1787964234 30.56° C 99% 1009 hPa - - 0 W/m² -
1787963609 30.56° C 99% 1008 hPa - - 0 W/m² -
1787962984 30.56° C 99% 1008 hPa - - 0 W/m² -
1787962358 30.56° C 99% 1008 hPa - - 0 W/m² -
1787961731 30.56° C 98% 1008 hPa - - 0 W/m² -
1787961106 30° C 99% 1008 hPa - - 0 W/m² -
1787960481 29.44° C 99% 1008 hPa - - 0 W/m² -
1787959858 28.89° C 99% 1008 hPa - - 0 W/m² -
1787920945 31.67° C 86% 1007 hPa - - 0 W/m² -
1787920311 32.22° C 85% 1007 hPa - - 0 W/m² -
1787919685 32.22° C 84% 1007 hPa - - 0 W/m² -
1787919060 32.22° C 85% 1006 hPa - - 0 W/m² -
1787918436 32.22° C 84% 1006 hPa - - 0 W/m² -
1787917811 32.22° C 83% 1007 hPa - - 0 W/m² -
1787917186 32.22° C 81% 1006 hPa - - 0 W/m² -
1787916562 32.22° C 81% 1006 hPa - - 0 W/m² -
1787915937 32.78° C 78% 1006 hPa - - 0 W/m² -
1787915313 32.78° C 77% 1006 hPa - - 0 W/m² -
1787914686 33.33° C 76% 1006 hPa - - 0 W/m² -

* Rain since midnight (hover to see other rain measurements)
** Current wind speed in m/s (hover to see current wind gust speed)